Вернуться в каталог

STARLINK-36059

АктивенСвязьVLEO
NORAD 66904·PAYLOAD·🇺🇸 United States

Запущен Dec 4, 2025 с Vandenberg Space Force Base

Loading…

Ближайшие Пролёты (ближайшие 24 часа)

TLE

СвежийSource: CelesTrak SupGP

Эпоха: Sep 15, 2026, 03:38 UTC

1 66904C 25283AC  26258.15187500 -.00063709  00000+0 -18824-2 0  2584
2 66904  53.1574 221.0462 0001452  94.6256 321.2552 15.34420463    16

Отслеживайте STARLINK-36059 в реальном времени с AllMySat

Download on the App Store